Simultaneous Nadir Overpasses (SNOs) Predictions

Prediction of SNOs between NOAA-20 and LANDSAT-8 Satellite Orbit:

Table of predicted SNOs for the next 14.0 days since TLE Epoch: 3/9/2024
Index Date (NOAA-20) Time (NOAA-20) Lat,Lon (NOAA-20) SZA (NOAA-20 ) Date (LANDSAT-8) Time (LANDSAT-8) Lat,Lon (LANDSAT-8) SZA (LANDSAT-8 ) Distance(km) Time Diff (sec)
1 03/10/2024 06:32:43 70.16, 78.10 74.06 03/10/2024 06:33:30 70.18, 78.07 74.08 2.90 47
2 03/10/2024 07:23:25 -70.07,-114.45 106.05 03/10/2024 07:23:00 -70.06,-114.47 106.06 1.73 25
3 03/12/2024 22:49:37 70.16,-166.12 73.00 03/12/2024 22:49:59 70.14,-166.11 72.98 1.93 22
4 03/12/2024 23:40:18 -70.02, 1.42 107.17 03/12/2024 23:39:29 -70.02, 1.35 107.15 2.51 49
5 03/15/2024 14:15:48 -70.33, 142.09 107.88 03/15/2024 14:16:59 -70.28, 142.32 107.94 10.15 71
6 03/15/2024 15:06:30 70.11, -50.27 71.89 03/15/2024 15:06:27 70.12, -50.26 71.90 1.36 3
7 03/15/2024 15:57:11 -69.97, 117.27 108.28 03/15/2024 15:55:58 -69.95, 117.14 108.28 5.29 73
8 03/18/2024 06:32:39 -70.18,-101.90 109.10 03/18/2024 06:33:28 -70.18,-101.93 109.10 1.37 49
9 03/18/2024 07:23:22 70.07, 65.57 70.78 03/18/2024 07:22:54 70.08, 65.56 70.79 0.61 28
10 03/20/2024 21:59:05 71.09,-154.91 70.82 03/20/2024 22:00:11 70.98,-152.48 70.62 88.32 66
11 03/20/2024 22:49:31 -70.14, 13.93 110.20 03/20/2024 22:49:54 -70.16, 13.92 110.18 2.30 23
12 03/20/2024 23:40:15 70.04,-178.60 69.69 03/20/2024 23:39:21 70.05,-178.59 69.70 1.30 54



Historial Predications of SNOs between NOAA-20 and LANDSAT-8
